Location: Northcutt
(34.7304°N, 84.4305°W)
Time: 16:43:51
(UTC+00:00)

SR - Pass Details

Date: 13 October 2022
Orbit: 577 x 874 km, 66.7° (Epoch: 05 December)

Event Time Altitude Azimuth Distance (km) Brightness Sun altitude
Rises 01:40:41 0° 268° (W) 3,457 ? -32.3°
Reaches altitude 10° 01:46:22 10° 311° (NW) 2,523 ? -33.4°
Maximum altitude 01:46:54 10° 317° (NW) 2,513 ? -33.5°
Drops below altitude 10° 01:47:26 10° 322° (NW) 2,519 ? -33.6°
Sets 01:53:05 0° 6° (N) 3,416 ? -34.7°
